Tracking 22879 objects as of 22-Apr-2021
HD Live streaming from Space Station
objects crossing your sky now

SL-8 DEB

Track SL-8 DEB now!
10-day predictions


NORAD ID: 39701
Int'l Code: 1991-009DQ
Perigee: 1,473.4 km
Apogee: 1,686.3 km
Inclination: 74.0 °
Period: 117.6 minutes
Semi major axis: 7950 km
RCS: 0.0255 m2 (small)
Launch date: February 12, 1991
Source: Commonwealth of Independent States (former USSR) (CIS)
Launch site: PLESETSK MISSILE AND SPACE COMPLEX (PKMTR)

Note: This is SATELLITE DEBRIS
aabbcc
Your satellite tracking list
Your tracking list is empty




NASA's NSSDC Master Catalog

Two Line Element Set (TLE):
1 39701U 91009DQ  21110.62275795  .00000037  00000-0  45652-3 0  9992
2 39701  73.9860 241.6063 0133903  15.4957 358.2208 12.24564474331900
Source of the keplerian elements: AFSPC